Tracking 19192 objects as of 18-Jun-2018
HD Live streaming from Space Station
objects crossing your sky now

COSMOS 2251 DEB

Track COSMOS 2251 DEB now!
10-day predictions


NORAD ID: 37120
Int'l Code: 1993-036BGS
Perigee: 732.0 km
Apogee: 805.6 km
Inclination: 74.0 °
Period: 100.1 minutes
Semi major axis: 7139 km
RCS: 0.0125 m2 (small)
Launch date: June 16, 1993
Source: Commonwealth of Independent States (former USSR) (CIS)
Launch site: PLESETSK MISSILE AND SPACE COMPLEX (PKMTR)

Note: This is SATELLITE DEBRIS
aabbcc
Your satellite tracking list
Your tracking list is empty




NASA's NSSDC Master Catalog

Two Line Element Set (TLE):
1 37120U 93036BGS 18166.66731064 +.00001369 +00000-0 +44490-3 0  9992
2 37120 074.0168 292.1906 0051538 289.3613 070.1974 14.39039953264998
Source of the keplerian elements: AFSPC